Weather History for Gdansk Airport, Poland

Change the Weather History Date:

Friday, February 8, 2013

  Actual Average Record
Temperature  
Mean Temperature 30 °F -  
Max Temperature 33 °F 36 °F 44 °F (2001)
Min Temperature 28 °F 25 °F 8 °F (1999)
Degree Days  
Heating Degree Days 34    
Moisture  
Dew Point 29 °F    
Average Humidity 91    
Maximum Humidity 100    
Minimum Humidity 75    
Precipitation  
Precipitation 0.00 in - - ()
Sea Level Pressure  
Sea Level Pressure 29.74 in    
Wind  
Wind Speed 4 mph ()    
Max Wind Speed 9 mph    
Max Gust Speed -    
Visibility 4.2 miles    
Events Snow    
Averages and records for this station are not official NWS values.
T = Trace of Precipitation, MM = Missing Value Source: Averaged Metar Reports

Daily Weather History Graph

Daily Weather History Graph

Search for Another Location

Airport:

Trip Planner

Search our weather history database for the weather conditions in past years. The results will help you decide how hot, cold, wet, or windy it might be!

Date:

Astronomy

Feb. 08, 2013 Rise Set
Actual Time 7:21 AM CET 4:40 PM CET
Civil Twilight 6:43 AM CET 5:18 PM CET
Nautical Twilight 6:00 AM CET 6:00 PM CET
Astronomical Twilight 5:19 AM CET 6:41 PM CET
Moon 5:46 AM CET (2/8) 2:44 PM CET (2/8)
Length of Visible Light 10h 34m
Length of Day
9h 18m
Waning Crescent, 5% of the Moon is Illuminated
Feb 8
Waning Crescent
Feb 10
New
Feb 17
First Quarter
Feb 25
Full
Mar 4
Last Quarter

Hourly Weather History & Observations

Time (CET) Temp. Windchill Dew Point Humidity Pressure Visibility Wind Dir Wind Speed Gust Speed Precip Events Conditions
12:00 AM 32.0 °F 28.7 °F 30.2 °F 93% 29.71 in 3.7 mi North 3.5 mph - N/A   Scattered Clouds
12:30 AM 32.0 °F 28.7 °F 30.2 °F 93% 29.71 in 3.7 mi North 3.5 mph - N/A   Mostly Cloudy
1:00 AM 32.0 °F 28.7 °F 30.2 °F 93% 29.68 in 3.7 mi NNW 3.5 mph - N/A   Mostly Cloudy
1:30 AM 32.0 °F 28.7 °F 30.2 °F 93% 29.68 in 1.9 mi NW 3.5 mph - N/A Snow Light Snow
2:00 AM 32.0 °F 27.5 °F 30.2 °F 93% 29.68 in 1.0 mi NW 4.6 mph - N/A Snow Light Snow
2:30 AM 32.0 °F - 30.2 °F 93% 29.68 in 1.1 mi Variable 2.3 mph - N/A Snow Light Snow
3:00 AM 32.0 °F - 30.2 °F 93% 29.68 in 1.4 mi Variable 2.3 mph - N/A Snow Light Snow
3:30 AM 32.0 °F - 30.2 °F 93% 29.68 in 1.6 mi Variable 1.2 mph - N/A Snow Light Snow
4:00 AM 30.2 °F - 30.2 °F 100% 29.68 in 1.2 mi NW 1.2 mph - N/A Snow Light Snow
4:30 AM 30.2 °F - 30.2 °F 100% 29.68 in 1.1 mi Calm Calm - N/A Snow Light Snow
5:00 AM 30.2 °F - 30.2 °F 100% 29.68 in 1.2 mi NW 2.3 mph - N/A Snow Light Snow
5:30 AM 30.2 °F 26.7 °F 30.2 °F 100% 29.68 in 1.2 mi NW 3.5 mph - N/A Snow Light Snow
6:00 AM 30.2 °F 25.4 °F 30.2 °F 100% 29.68 in 1.6 mi NW 4.6 mph - N/A Snow Light Snow
6:30 AM 30.2 °F 25.4 °F 30.2 °F 100% 29.68 in 1.6 mi WNW 4.6 mph - N/A Snow Light Snow
7:00 AM 30.2 °F 26.7 °F 30.2 °F 100% 29.71 in 1.6 mi WNW 3.5 mph - N/A Snow Light Snow
7:30 AM 30.2 °F 25.4 °F 30.2 °F 100% 29.71 in 1.9 mi WNW 4.6 mph - N/A Snow Light Snow
8:00 AM 30.2 °F 26.7 °F 28.4 °F 93% 29.71 in 1.9 mi West 3.5 mph - N/A Snow Light Snow
8:30 AM 30.2 °F 26.7 °F 30.2 °F 100% 29.71 in 1.9 mi West 3.5 mph - N/A   Partly Cloudy
9:00 AM 30.2 °F 25.4 °F 30.2 °F 100% 29.71 in 1.9 mi West 4.6 mph - N/A Snow Light Snow
9:30 AM 32.0 °F 27.5 °F 30.2 °F 93% 29.71 in 2.5 mi West 4.6 mph - N/A Snow Light Snow
10:00 AM 32.0 °F 27.5 °F 30.2 °F 93% 29.71 in 2.5 mi West 4.6 mph - N/A Snow Light Snow
10:30 AM 32.0 °F 25.6 °F 30.2 °F 93% 29.71 in 4.3 mi West 6.9 mph - N/A   Mostly Cloudy
11:00 AM 32.0 °F 26.4 °F 30.2 °F 93% 29.74 in 6.2 mi WNW 5.8 mph - N/A   Mostly Cloudy
11:30 AM 32.0 °F 27.5 °F 30.2 °F 93% 29.74 in 4.3 mi West 4.6 mph - N/A Snow Light Snow Showers
12:00 PM 32.0 °F 24.8 °F 30.2 °F 93% 29.74 in 6.2 mi West 8.1 mph - N/A   Mostly Cloudy
12:30 PM 33.8 °F 26.4 °F 28.4 °F 81% 29.74 in 6.2 mi West 9.2 mph - N/A   Mostly Cloudy
1:00 PM 33.8 °F 28.6 °F 30.2 °F 87% 29.74 in 6.2 mi West 5.8 mph - N/A   Mostly Cloudy
1:30 PM 33.8 °F 27.0 °F 28.4 °F 81% 29.74 in 6.2 mi West 8.1 mph - N/A   Mostly Cloudy
2:00 PM 33.8 °F 27.7 °F 28.4 °F 81% 29.74 in 6.2 mi West 6.9 mph - N/A   Partly Cloudy
2:30 PM 33.8 °F 27.0 °F 28.4 °F 81% 29.74 in 6.2 mi West 8.1 mph - N/A   Partly Cloudy
3:00 PM 33.8 °F 26.4 °F 26.6 °F 75% 29.77 in 6.2 mi WSW 9.2 mph - N/A   Partly Cloudy
3:30 PM 33.8 °F 27.0 °F 26.6 °F 75% 29.77 in 6.2 mi WSW 8.1 mph - N/A   Scattered Clouds
4:00 PM 32.0 °F 25.6 °F 26.6 °F 80% 29.77 in 6.2 mi WSW 6.9 mph - N/A   Mostly Cloudy
4:30 PM 32.0 °F 24.8 °F 28.4 °F 87% 29.77 in 6.2 mi West 8.1 mph - N/A   Mostly Cloudy
5:00 PM 32.0 °F 24.8 °F 28.4 °F 87% 29.77 in 6.2 mi WSW 8.1 mph - N/A   Mostly Cloudy
5:30 PM 32.0 °F 24.8 °F 28.4 °F 87% 29.80 in 6.2 mi WSW 8.1 mph - N/A   Mostly Cloudy
6:00 PM 32.0 °F 24.2 °F 28.4 °F 87% 29.80 in 6.2 mi WSW 9.2 mph - N/A   Mostly Cloudy
6:30 PM 32.0 °F 24.2 °F 28.4 °F 87% 29.80 in 6.2 mi West 9.2 mph - N/A   Mostly Cloudy
7:00 PM 32.0 °F 25.6 °F 28.4 °F 87% 29.80 in 6.2 mi West 6.9 mph - N/A   Mostly Cloudy
7:30 PM 30.2 °F 21.9 °F 26.6 °F 86% 29.80 in 6.2 mi WSW 9.2 mph - N/A   Mostly Cloudy
8:00 PM 30.2 °F 23.4 °F 26.6 °F 86% 29.80 in 6.2 mi WSW 6.9 mph - N/A   Partly Cloudy
8:30 PM 28.4 °F 23.3 °F 26.6 °F 93% 29.80 in 6.2 mi WSW 4.6 mph - N/A   Scattered Clouds
9:00 PM 28.4 °F 24.6 °F 26.6 °F 93% 29.83 in 6.2 mi WSW 3.5 mph - N/A   Scattered Clouds
9:30 PM 28.4 °F 21.2 °F 26.6 °F 93% 29.83 in 6.2 mi West 6.9 mph - N/A   Scattered Clouds
10:00 PM 30.2 °F 23.4 °F 26.6 °F 86% 29.83 in 6.2 mi West 6.9 mph - N/A   Mostly Cloudy
10:30 PM 30.2 °F 24.3 °F 28.4 °F 93% 29.83 in 6.2 mi West 5.8 mph - N/A   Mostly Cloudy
11:00 PM 30.2 °F 24.3 °F 28.4 °F 93% 29.83 in 6.2 mi West 5.8 mph - N/A   Mostly Cloudy
11:30 PM 30.2 °F 22.6 °F 26.6 °F 86% 29.83 in 6.2 mi West 8.1 mph - N/A   Mostly Cloudy